Wind_Speed
13 12 13 14 12 9 10 10 8 5 8 12 10 10 11 10 8 6 6 5 4 3 5 4 5 7 9 8 7 7 6 5 5 5 5 5 5 6 7 6 5 3 2
14 16 14 13 11 12 8 8 8 8 9 12 10 12 12 12 9 8 7 5 5 4 5 4 7 8 9 9 9 9 7 6 4 4 5 4 5 5 5 5 5 5 5
17 16 13 16 18 16 11 7 9 9 9 12 12 16 14 13 11 10 9 8 7 7 4 6 7 8 10 10 10 9 6 6 5 6 8 8 7 7 7 8 8 7 7
8 11 13 13 14 15 16 12 12 9 9 10 15 22 18 16 12 12 12 11 12 8 8 8 11 11 10 11 10 8 7 8 8 11 11 9 9 7 7 7 9 11 12
8 9 10 13 14 15 15 13 14 13 12 11 17 22 19 17 16 16 14 16 11 12 10 11 12 10 10 10 9 9 10 11 14 14 9 8 5 4 7 10 13 13 15
7 10 11 14 15 15 15 14 13 15 13 13 16 11 9 19 19 19 21 16 14 12 11 12 12 11 12 10 10 11 14 14 13 8 5 5 9 12 14 14 15 18 22
9 9 13 13 13 15 15 16 10 10 15 9 10 12 11 13 13 21 22 18 15 14 14 14 13 13 12 11 13 15 14 11 7 7 10 10 10 11 12 14 16 22 29
9 10 11 12 13 13 17 18 15 12 11 11 14 15 17 26 26 24 22 19 18 17 15 15 14 13 13 15 15 13 10 8 7 11 12 12 12 12 13 17 13 17 23
5 7 9 14 15 12 15 17 16 13 9 10 13 21 23 24 24 22 21 20 18 16 15 16 15 13 16 16 12 9 7 8 10 12 12 13 15 14 12 22 27 25 22
3 3 5 12 13 11 14 10 13 13 8 9 21 25 27 24 24 21 20 20 18 17 17 16 15 16 17 13 10 8 8 8 8 9 11 14 17 19 16 18 22 22 22
1 2 1 8 17 14 12 13 11 12 13 23 24 22 23 24 23 19 20 19 18 18 18 16 17 16 15 11 9 8 8 7 9 9 11 14 16 19 18 16 21 19 19
2 1 1 2 17 16 16 16 15 21 26 23 23 23 23 21 21 20 21 19 19 19 17 18 18 16 13 10 9 9 8 7 8 9 11 14 18 15 17 19 21 20 18
7 5 8 14 18 23 27 26 24 23 24 25 24 23 22 21 21 20 20 20 19 19 18 17 15 13 12 8 7 7 6 6 8 10 12 12 11 13 16 19 19 18 20
6 9 12 14 13 14 18 22 21 23 23 24 22 22 21 21 22 20 20 19 18 17 16 15 13 12 10 7 5 4 5 5 12 12 9 11 12 13 16 18 18 19 21
8 8 10 13 14 16 20 19 22 22 21 21 20 20 19 19 19 18 17 17 17 17 17 15 12 9 6 6 4 6 5 11 16 14 13 12 12 14 16 18 19 21 21
7 6 7 11 14 14 16 18 18 19 19 19 18 18 19 18 18 18 16 15 17 17 15 12 9 6 6 5 7 7 17 16 16 16 14 12 14 15 17 18 18 20 20
5 6 7 8 11 14 15 16 17 18 19 19 18 18 18 17 15 14 14 15 15 14 12 9 8 5 5 5 8 13 15 14 14 13 13 12 13 15 16 17 17 18 18
5 5 7 9 11 12 14 16 18 20 19 18 18 17 16 14 14 16 15 14 13 12 9 6 5 3 3 5 9 11 14 12 10 12 15 15 15 15 15 14 15 15 15
3 2 5 9 12 12 12 13 15 18 18 18 17 16 14 16 18 18 14 14 12 11 8 6 3 2 5 8 12 12 14 14 13 13 14 14 15 15 15 13 12 13 14
4 2 4 8 12 12 13 14 14 17 18 18 16 15 17 19 20 17 14 13 12 10 7 5 3 2 4 7 9 14 17 13 12 11 11 13 13 12 12 12 13 16 12
3 3 3 8 13 12 11 13 13 16 17 18 17 18 19 18 18 16 14 14 13 10 7 3 1 2 4 5 7 13 15 15 12 10 10 12 12 13 14 12 12 10 11
4 3 4 7 10 11 12 12 13 17 18 19 20 20 19 16 16 15 14 13 12 9 5 4 2 1 1 4 6 9 6 5 7 9 11 13 12 13 12 11 11 11 11
5 5 5 5 10 12 13 14 17 18 17 17 18 18 18 17 15 15 14 13 11 9 5 5 2 2 1 4 5 6 8 10 7 11 11 11 11 12 11 11 10 10 10
7 6 6 5 8 13 14 16 16 16 16 16 19 20 18 17 16 14 14 13 12 10 8 3 3 3 1 3 2 6 8 8 8 11 9 9 8 10 9 11 10 5 6
9 8 7 7 7 13 13 14 14 16 19 19 20 20 19 19 17 16 16 15 10 10 9 8 5 3 2 3 3 5 5 5 6 8 8 8 7 6 5 5 4 2 4
11 12 10 8 9 9 16 15 16 17 19 20 20 19 19 19 19 18 17 15 11 9 9 8 7 5 4 3 4 4 4 4 4 5 6 6 5 5 4 4 2 2 4
Wind_Direction
178 171 174 171 182 185 187 187 183 189 194 194 196 188 166 150 142 129 105 90 85 103 114 87 66 85 89 89 92 97 97 90 81 78 56 32 350 328 329 330 338 348 334
197 198 197 195 184 190 209 208 178 186 193 189 205 202 170 156 153 139 127 114 131 122 97 74 80 90 88 98 107 99 94 86 71 54 38 18 357 359 346 329 323 321 326
193 200 204 199 194 195 208 198 199 186 196 197 209 210 175 162 157 147 137 145 136 118 96 92 90 97 103 98 92 94 88 71 46 40 36 30 21 13 353 330 321 306 292
187 198 197 197 201 215 213 207 205 202 215 229 228 219 178 165 163 153 150 147 132 129 125 106 99 96 90 91 93 89 73 70 61 57 48 41 35 22 354 329 311 303 289
203 202 203 203 208 213 208 227 225 231 242 222 231 236 183 162 167 164 149 145 145 132 124 112 108 97 92 90 82 76 76 70 63 60 59 50 34 349 333 330 325 302 284
218 219 211 208 214 215 220 228 222 237 228 229 255 215 190 170 174 169 132 132 131 125 117 112 109 99 88 79 80 79 76 72 73 74 56 25 9 1 353 335 312 305 281
206 207 212 206 209 201 195 206 229 235 226 231 269 238 196 185 172 128 124 123 122 116 116 111 107 99 91 85 83 80 83 85 87 53 34 20 8 5 347 327 327 1 15
229 227 220 211 205 207 212 213 210 203 220 221 252 216 144 126 123 120 119 119 116 114 112 109 104 98 95 93 92 94 98 87 51 47 29 17 4 11 354 5 358 20 30
212 223 212 217 207 204 206 206 215 220 235 217 190 147 131 122 119 121 113 113 112 108 112 109 102 102 99 99 102 99 79 64 55 49 31 16 10 12 21 24 25 29 30
242 280 235 197 203 199 196 203 211 209 218 185 171 147 119 118 121 117 113 115 113 115 115 109 108 105 104 108 101 85 75 66 60 45 20 8 12 15 6 28 35 29 27
226 322 348 240 206 205 189 205 184 180 190 166 141 122 123 121 119 120 114 119 118 120 116 110 109 107 107 104 100 94 75 64 51 29 12 12 22 25 17 24 32 35 32
163 15 285 79 184 171 171 159 174 158 145 137 126 135 124 123 126 120 122 120 122 118 116 114 114 118 117 113 101 86 76 59 36 15 7 21 34 23 37 32 32 28 26
154 132 127 111 113 151 141 136 133 132 134 137 144 134 130 127 129 121 123 123 119 118 116 120 124 119 108 105 100 88 77 53 24 9 11 26 28 40 36 37 32 23 26
142 128 118 113 119 127 131 136 138 140 143 145 145 139 130 129 130 124 123 123 117 118 123 116 120 120 114 103 88 82 59 53 34 37 21 25 27 38 33 35 31 25 30
145 155 144 133 136 134 138 144 148 147 147 151 145 138 131 131 137 132 125 122 136 130 119 126 128 120 122 110 77 27 351 58 47 36 32 31 41 38 32 32 31 29 31
159 173 145 137 142 143 146 150 151 151 150 147 143 139 140 138 139 132 122 134 136 136 137 131 133 145 107 71 39 41 44 35 34 39 41 48 54 35 32 35 34 35 30
152 162 158 162 154 154 154 156 157 155 153 149 146 148 145 147 143 142 143 143 146 143 137 141 145 139 95 39 39 29 41 45 45 57 63 70 54 35 34 34 39 39 35
130 152 177 173 169 162 159 161 160 159 156 152 151 150 152 151 146 154 152 149 152 145 146 157 156 113 65 48 37 45 54 50 60 73 74 68 55 43 30 28 39 43 49
104 140 176 179 174 172 165 166 164 162 158 159 158 155 151 149 158 158 158 157 157 155 164 175 163 79 59 40 43 56 66 57 66 73 64 55 51 47 39 37 46 53 56
108 126 160 179 175 180 177 173 174 171 167 163 159 151 150 153 157 164 165 166 165 168 177 174 159 72 47 45 53 53 63 75 71 63 51 48 44 46 42 38 52 34 63
145 121 131 163 176 184 179 177 181 179 170 166 159 160 159 153 157 172 169 173 178 178 179 184 212 35 45 52 54 56 59 57 57 53 49 52 48 46 47 51 68 90 73
184 141 164 179 183 187 181 179 182 176 179 175 167 169 170 165 170 171 176 180 185 179 183 206 201 290 243 33 52 60 70 31 59 71 62 56 50 49 50 54 68 78 70
204 186 176 187 197 195 184 180 187 181 182 179 176 177 179 180 182 181 179 187 186 170 142 185 233 196 337 353 14 36 103 106 101 81 64 64 64 60 55 59 66 77 77
218 208 204 211 200 202 199 199 192 184 183 188 185 188 186 191 195 194 192 193 198 197 216 234 216 199 312 326 13 92 110 103 98 107 81 75 73 68 57 52 14 36 83
221 217 212 222 220 210 202 200 191 190 185 191 190 191 194 197 202 206 209 207 212 207 227 230 215 214 269 266 168 132 114 92 94 90 79 69 61 66 51 46 116 30 45
227 226 208 217 230 220 204 200 193 194 196 195 195 196 199 203 206 217 224 222 230 228 221 212 198 224 237 215 187 156 134 120 102 68 63 45 29 45 13 10 30 28 2
Height
5877 5879 5883 5885 5886 5887 5888 5889 5889 5890 5892 5892 5892 5894 5895 5895 5896 5896 5896 5897 5898 5898 5899 5899 5900 5899 5898 5899 5899 5898 5899 5899 5899 5898 5899 5899 5897 5896 5896 5895 5894 5893 5892
5878 5880 5882 5884 5885 5886 5887 5886 5888 5890 5891 5892 5893 5894 5894 5894 5896 5896 5897 5899 5900 5900 5899 5900 5901 5901 5900 5901 5901 5901 5902 5902 5901 5900 5900 5900 5900 5899 5897 5896 5895 5894 5892
5878 5880 5881 5882 5883 5884 5887 5886 5888 5889 5890 5892 5893 5892 5893 5894 5895 5896 5897 5899 5900 5900 5901 5902 5903 5903 5903 5902 5902 5903 5904 5904 5903 5902 5902 5902 5901 5900 5898 5897 5895 5893 5892
5878 5879 5880 5882 5883 5884 5886 5887 5888 5889 5890 5891 5891 5890 5890 5893 5895 5896 5897 5899 5900 5902 5903 5903 5904 5904 5905 5905 5905 5905 5906 5905 5905 5905 5904 5904 5903 5901 5900 5898 5896 5894 5892
5877 5878 5879 5881 5882 5883 5885 5886 5888 5889 5889 5890 5890 5889 5885 5890 5894 5895 5897 5900 5901 5902 5904 5905 5906 5906 5907 5908 5908 5908 5908 5907 5907 5906 5905 5903 5902 5900 5898 5898 5897 5894 5891
5876 5878 5879 5879 5881 5883 5885 5886 5887 5888 5888 5889 5889 5890 5889 5888 5891 5893 5895 5899 5901 5903 5905 5906 5908 5908 5909 5911 5910 5911 5910 5909 5908 5907 5904 5903 5903 5902 5901 5898 5894 5891 5885
5876 5876 5877 5878 5880 5881 5883 5885 5887 5886 5888 5889 5890 5892 5888 5888 5889 5894 5897 5900 5903 5905 5907 5908 5908 5909 5911 5912 5912 5912 5911 5910 5909 5907 5905 5904 5904 5903 5900 5897 5894 5890 5882
5875 5876 5877 5878 5878 5880 5882 5885 5887 5887 5889 5890 5890 5890 5891 5892 5893 5896 5898 5902 5904 5907 5908 5909 5910 5912 5912 5913 5914 5913 5912 5911 5911 5909 5906 5905 5903 5903 5900 5897 5894 5890 5887
5875 5874 5876 5876 5876 5879 5881 5883 5885 5887 5888 5890 5890 5889 5892 5892 5895 5899 5900 5903 5906 5908 5910 5911 5912 5913 5913 5914 5914 5914 5914 5913 5912 5909 5907 5904 5901 5901 5900 5897 5894 5890 5888
5873 5873 5873 5874 5876 5878 5880 5882 5883 5886 5888 5889 5889 5890 5890 5895 5899 5901 5902 5904 5907 5909 5911 5912 5914 5915 5914 5915 5916 5915 5914 5913 5911 5909 5907 5905 5903 5901 5900 5898 5896 5893 5889
5873 5873 5872 5871 5874 5876 5878 5882 5883 5885 5888 5890 5890 5892 5895 5897 5900 5903 5903 5905 5908 5911 5913 5915 5916 5916 5916 5917 5917 5916 5914 5914 5911 5910 5908 5906 5904 5901 5899 5898 5897 5894 5892
5875 5875 5873 5870 5871 5875 5878 5881 5883 5885 5888 5889 5891 5895 5897 5900 5903 5904 5904 5906 5909 5912 5915 5917 5917 5917 5917 5918 5918 5917 5916 5914 5913 5911 5909 5907 5904 5903 5900 5898 5897 5895 5894
5877 5876 5876 5875 5874 5875 5878 5882 5883 5886 5889 5891 5896 5897 5899 5901 5904 5904 5907 5909 5912 5913 5916 5918 5919 5918 5919 5919 5918 5919 5917 5915 5914 5912 5909 5908 5906 5903 5901 5900 5898 5896 5893
5877 5878 5879 5880 5881 5880 5881 5883 5886 5889 5892 5895 5897 5898 5899 5902 5905 5907 5910 5912 5914 5917 5918 5920 5921 5920 5920 5920 5919 5918 5917 5916 5915 5913 5910 5908 5906 5904 5902 5901 5900 5898 5894
5880 5881 5881 5881 5883 5884 5885 5888 5888 5890 5893 5897 5898 5900 5902 5905 5907 5910 5912 5914 5921 5919 5920 5921 5921 5921 5921 5921 5920 5918 5917 5917 5914 5912 5910 5908 5908 5907 5904 5903 5901 5899 5896
5881 5882 5882 5883 5884 5885 5888 5890 5891 5893 5896 5898 5900 5901 5904 5906 5909 5911 5914 5916 5918 5920 5921 5921 5922 5921 5922 5922 5921 5919 5917 5916 5914 5912 5910 5910 5910 5909 5907 5905 5903 5901 5899
5881 5883 5884 5885 5886 5888 5890 5891 5893 5896 5898 5899 5900 5903 5905 5907 5911 5914 5916 5917 5919 5922 5922 5922 5923 5923 5923 5923 5921 5920 5918 5918 5916 5914 5911 5910 5911 5911 5909 5908 5905 5903 5903
5881 5882 5883 5885 5887 5888 5890 5892 5894 5897 5898 5899 5901 5903 5906 5908 5911 5914 5917 5919 5921 5922 5923 5923 5924 5924 5925 5924 5923 5922 5919 5917 5917 5916 5913 5913 5912 5911 5910 5909 5908 5907 5906
5882 5882 5883 5884 5886 5888 5890 5892 5894 5896 5898 5900 5903 5905 5907 5909 5913 5916 5918 5920 5922 5924 5925 5924 5925 5925 5926 5925 5924 5924 5921 5918 5917 5917 5916 5915 5914 5913 5912 5912 5911 5910 5909
5883 5883 5884 5884 5886 5888 5890 5892 5895 5897 5899 5902 5904 5906 5909 5912 5914 5917 5920 5921 5923 5925 5925 5926 5926 5927 5927 5925 5925 5924 5922 5921 5920 5919 5918 5916 5915 5914 5915 5915 5915 5916 5913
5884 5884 5885 5886 5888 5889 5891 5893 5896 5899 5901 5903 5905 5908 5911 5913 5916 5919 5921 5922 5924 5925 5926 5927 5927 5927 5927 5926 5926 5925 5925 5925 5924 5922 5921 5919 5918 5917 5917 5917 5918 5918 5915
5886 5886 5886 5888 5889 5890 5892 5894 5896 5900 5902 5904 5907 5909 5912 5915 5917 5919 5921 5923 5925 5926 5927 5927 5927 5928 5928 5927 5927 5927 5924 5918 5928 5927 5924 5923 5921 5921 5921 5920 5919 5919 5918
5888 5887 5888 5889 5891 5892 5893 5895 5898 5901 5903 5906 5908 5910 5913 5915 5917 5920 5922 5924 5925 5926 5927 5927 5928 5928 5928 5928 5927 5927 5927 5926 5927 5928 5927 5925 5925 5925 5924 5924 5923 5922 5920
5888 5888 5890 5890 5891 5893 5894 5896 5900 5902 5904 5906 5908 5910 5913 5915 5918 5920 5922 5924 5924 5926 5927 5927 5928 5928 5928 5928 5928 5928 5928 5928 5928 5927 5928 5928 5927 5928 5928 5928 5923 5928 5924
5888 5889 5890 5891 5892 5893 5895 5897 5900 5902 5904 5907 5908 5911 5913 5915 5918 5920 5922 5923 5925 5926 5926 5927 5928 5929 5928 5929 5928 5928 5929 5929 5929 5929 5930 5930 5929 5929 5930 5930 5933 5930 5928
5888 5889 5890 5891 5892 5894 5895 5897 5899 5902 5904 5907 5909 5911 5913 5916 5918 5919 5921 5923 5924 5925 5926 5926 5928 5928 5928 5928 5928 5929 5929 5930 5931 5931 5930 5931 5930 5930 5930 5930 5930 5930 5928